Theta_e
313 319 318 317 314 315 315 316 317 316 315 315 312 316 317 315 317 317 317 318 319 320 321 323 324 323 323 319 319 319 320 318 317 316 316 316 315 315 315 314 313 313 313 314
313 316 317 317 315 315 315 316 316 315 315 313 313 318 317 316 317 316 315 317 318 319 318 318 321 322 322 322 321 321 320 319 318 318 319 318 317 317 316 315 314 313 313 313
316 317 316 316 315 315 315 316 316 316 314 314 312 313 317 316 315 317 315 314 315 318 319 319 320 322 323 323 322 322 321 321 320 320 320 319 318 318 318 318 316 314 314 313
317 316 316 316 317 314 316 315 316 315 314 315 312 313 313 316 315 316 316 314 314 315 316 317 319 320 323 323 323 323 322 321 321 321 321 320 319 319 318 318 317 316 314 314
319 316 315 315 318 315 316 314 314 315 313 312 313 314 312 315 316 315 318 317 315 313 314 315 317 319 319 320 320 323 323 322 321 321 321 320 318 316 317 318 318 316 314 314
317 316 314 315 316 314 312 313 308 308 309 312 315 314 312 315 317 317 317 318 317 315 313 313 315 315 316 317 317 318 318 318 317 317 317 317 316 316 317 317 319 318 314 314
318 318 317 315 315 312 310 310 311 312 311 310 311 313 312 315 316 316 318 317 315 314 313 312 313 314 314 314 312 311 313 314 314 314 314 314 314 314 315 315 318 319 315 314
319 320 316 314 316 315 312 311 313 318 314 313 311 315 317 314 312 313 313 312 312 311 310 310 311 312 311 311 311 310 309 309 308 308 310 312 313 314 314 315 315 318 316 315
318 319 314 315 313 311 314 313 311 312 311 314 312 316 315 314 312 311 311 311 310 308 307 308 309 309 309 309 310 309 309 308 308 307 307 309 311 313 314 316 316 317 315 315
315 315 315 316 312 312 312 312 313 310 317 318 316 317 316 315 313 311 311 311 308 307 306 306 307 308 309 308 309 308 308 308 307 306 307 309 309 309 310 314 315 315 315 313
312 311 311 311 313 315 314 314 310 310 312 315 318 315 311 314 313 312 310 309 308 307 306 306 307 308 308 308 308 308 307 307 306 306 306 308 306 305 308 308 309 309 308 308
313 310 312 313 312 311 313 315 311 310 314 312 313 316 313 311 313 311 310 309 307 307 306 306 306 306 307 307 308 308 307 306 306 305 306 305 304 305 306 308 307 307 307 306
311 308 305 307 310 310 317 316 312 309 307 313 310 314 311 312 311 310 309 308 308 307 306 307 307 307 308 307 306 306 306 304 304 303 303 303 304 305 306 306 307 306 306 305
311 307 306 308 309 311 317 317 315 312 304 312 313 315 313 311 311 309 308 308 308 307 307 308 308 308 308 306 305 304 304 303 302 303 302 302 304 304 304 305 305 304 302 303
309 312 310 311 312 314 316 316 316 314 313 313 314 314 313 311 310 310 308 307 309 309 309 308 308 307 306 305 304 303 303 302 302 301 300 301 303 303 303 303 303 303 302 304
308 309 314 317 316 316 318 316 316 315 316 315 315 314 311 309 308 308 309 309 310 309 308 308 307 305 304 302 302 302 301 301 301 301 301 301 302 302 302 302 303 302 302 302
308 310 313 317 316 315 314 314 316 316 315 314 314 312 310 310 309 309 310 310 309 308 307 306 304 303 302 301 301 300 301 301 301 302 302 301 301 302 302 302 303 304 303 303
310 311 311 315 313 317 313 314 314 316 315 313 312 311 309 309 309 307 308 308 307 307 306 303 302 301 301 301 300 301 301 301 301 302 302 301 301 302 302 302 302 303 304 303
308 311 312 312 313 312 315 314 310 308 311 311 311 309 308 308 306 306 304 304 306 305 303 301 301 301 301 300 301 301 301 301 302 302 301 301 301 302 302 302 302 302 302 302
308 307 309 309 313 313 308 312 312 308 307 309 310 309 308 306 309 307 307 306 304 302 301 300 301 301 300 301 301 301 302 302 301 301 301 301 301 301 302 302 302 302 302 302
308 307 310 308 309 309 308 311 311 309 310 306 307 307 306 307 305 307 305 303 301 301 301 300 301 301 300 301 301 301 302 302 302 301 301 301 301 301 301 302 302 302 302 301
308 305 306 306 311 311 310 311 308 307 305 307 306 306 306 305 305 304 303 301 300 300 300 300 301 301 301 301 301 301 302 302 302 302 301 301 301 301 302 302 302 302 302 302
308 307 306 306 307 305 307 309 307 305 306 306 306 305 304 303 303 302 301 300 300 301 301 301 301 301 301 301 301 301 302 303 303 302 302 301 301 302 302 303 303 303 303 304
308 304 308 309 308 308 307 307 306 306 306 305 304 304 303 302 301 301 300 301 301 301 301 301 301 301 301 301 301 302 303 305 305 303 302 302 302 303 304 303 304 306 305 307
306 307 308 307 308 307 307 306 306 306 305 305 304 303 302 300 301 300 300 301 301 301 301 301 301 301 301 301 302 304 306 306 304 303 303 303 303 304 304 302 304 306 307 307
305 308 307 308 307 306 306 306 306 305 306 305 304 302 302 300 300 299 300 300 301 301 301 300 301 301 301 302 304 306 306 306 306 304 303 304 305 305 305 304 303 304 305 306
Wind_Speed
6 11 5 6 3 3 3 4 3 1 4 3 6 5 8 9 14 15 13 12 11 12 14 18 15 13 13 9 7 5 5 4 4 4 4 4 6 8 11 11 12 14 15 14
7 5 5 6 5 6 6 3 3 3 3 2 6 5 4 7 6 6 7 10 9 6 9 15 18 17 13 7 4 2 2 2 5 5 6 5 6 6 5 8 9 11 13 14
6 5 6 6 7 6 4 4 2 3 4 3 6 2 3 2 5 7 7 6 7 7 7 6 15 13 8 4 2 5 5 4 3 4 5 5 6 8 9 9 7 8 9 10
6 5 7 8 7 3 2 1 2 4 3 3 2 4 3 2 6 6 8 8 8 8 7 7 9 6 9 10 8 7 4 5 6 7 10 15 14 13 13 12 9 6 6 7
2 5 6 9 3 3 3 3 2 2 3 3 4 4 3 2 4 5 6 6 6 6 6 7 13 13 9 3 5 7 11 15 16 16 17 19 23 22 20 17 15 12 9 9
3 1 4 3 2 4 4 2 7 4 3 2 1 4 4 1 2 1 3 5 6 7 7 9 11 11 12 12 13 14 15 19 23 22 26 26 26 26 26 23 21 18 14 11
4 2 1 4 5 6 10 6 4 5 5 4 1 2 2 2 3 1 1 4 6 6 7 7 11 14 16 15 16 18 18 18 20 23 27 29 30 32 30 28 24 24 19 15
1 4 5 7 2 2 4 4 5 4 3 4 6 4 4 1 3 5 5 4 4 8 7 7 13 16 16 16 17 19 18 18 22 27 31 30 29 31 32 31 29 24 21 18
2 2 2 5 4 4 3 5 1 3 2 2 3 1 5 1 7 7 7 7 8 8 7 7 14 21 26 26 22 19 14 17 22 29 33 32 27 25 24 21 21 22 20 18
3 2 2 2 4 7 7 2 4 4 2 5 4 3 4 1 3 4 2 4 7 7 8 8 17 25 27 29 26 23 18 18 25 33 34 32 28 26 20 13 13 15 15 16
3 3 5 2 3 1 4 3 6 3 3 3 4 4 5 4 2 6 8 8 9 10 10 10 19 27 30 33 29 27 24 28 30 34 36 34 36 39 36 26 21 20 21 22
1 4 1 1 4 1 3 3 5 4 5 5 2 8 4 7 3 4 7 9 9 9 10 14 21 24 26 29 32 32 30 30 35 35 33 29 35 38 40 30 27 26 24 23
5 2 3 6 6 4 2 2 4 3 3 5 3 5 4 2 4 5 8 9 11 11 11 13 19 22 26 29 29 27 27 26 27 30 34 35 32 34 32 33 31 25 23 29
6 3 6 6 6 3 3 3 3 4 3 3 6 8 10 7 6 8 10 11 12 11 12 13 14 22 27 27 23 28 30 28 33 27 29 32 29 27 29 29 28 30 31 30
4 4 4 5 6 4 5 7 6 7 7 5 6 5 11 6 7 10 11 12 16 17 16 16 16 22 27 26 31 30 27 31 29 30 31 29 29 29 29 31 30 31 31 29
3 1 2 3 5 4 5 8 8 6 2 4 6 12 3 6 6 7 12 14 18 18 17 18 18 26 27 29 29 29 30 30 29 30 31 29 31 29 27 28 29 31 30 30
2 4 3 4 4 6 6 4 3 0 2 4 6 9 4 11 12 13 14 19 18 16 18 22 20 25 27 28 31 31 32 30 29 30 25 29 27 24 24 28 27 23 26 29
5 5 2 3 3 2 3 1 2 2 7 9 9 4 8 12 13 10 13 14 16 16 20 17 24 27 28 32 32 31 29 30 29 27 29 27 26 23 23 23 23 23 20 19
3 4 2 2 2 6 2 2 1 3 8 5 4 7 9 12 8 9 9 5 14 19 22 26 31 31 33 32 33 30 29 29 27 26 26 25 23 21 20 21 21 19 20 20
5 5 4 3 1 4 4 3 2 5 4 3 6 9 12 6 11 15 18 17 20 24 26 29 32 32 31 33 33 29 29 27 27 26 25 24 22 21 21 21 17 19 21 23
2 2 2 2 3 7 5 4 3 4 7 4 4 9 7 4 6 17 17 20 25 27 30 31 31 29 31 32 31 29 27 27 28 25 23 22 21 21 21 21 19 19 21 21
5 4 3 2 2 6 6 2 5 6 4 5 5 7 7 10 13 13 18 18 25 28 30 31 29 30 32 31 29 27 26 30 25 23 21 19 18 19 17 18 20 20 19 19
1 6 4 8 6 5 5 8 6 4 6 7 4 8 8 9 12 15 17 17 24 27 27 30 28 29 31 31 29 24 29 28 23 19 18 16 17 17 17 19 19 17 16 15
3 3 3 2 3 6 5 5 6 5 7 8 7 8 6 8 13 16 15 17 21 26 27 29 27 27 28 30 30 28 29 26 15 13 13 12 14 16 16 11 9 9 8 6
5 5 4 4 7 6 6 6 6 7 6 7 8 6 7 7 14 12 16 17 23 25 29 28 27 26 28 29 29 30 25 16 9 8 8 10 12 13 5 12 13 8 8 4
5 6 4 5 8 5 7 6 4 6 7 7 5 7 9 7 12 18 15 23 23 27 30 27 27 27 28 29 27 25 24 14 9 5 6 8 8 4 7 7 13 15 13 14
Wind_Direction
6 54 17 309 224 162 106 92 86 171 342 81 47 65 11 350 28 15 9 9 26 35 30 64 86 99 126 133 146 154 163 153 148 112 115 79 78 80 68 49 42 29 27 19
32 62 312 301 49 84 51 94 8 326 338 109 96 96 42 18 18 14 348 8 6 34 46 48 65 73 83 89 113 135 124 53 29 17 16 16 358 355 25 39 41 29 21 17
94 317 348 72 40 59 42 84 352 230 350 21 119 30 43 44 30 14 16 5 18 11 16 72 77 74 70 71 35 10 9 351 344 349 343 341 318 316 321 334 344 3 359 360
78 319 60 56 50 66 71 239 267 242 118 230 37 267 240 112 33 18 6 15 10 9 4 22 35 101 160 179 199 204 245 286 294 302 312 307 300 290 298 292 288 290 308 320
221 18 33 55 2 346 231 349 6 335 109 76 346 74 254 76 36 8 351 10 6 3 13 12 13 15 4 345 296 236 224 230 234 238 248 270 282 294 297 285 278 274 280 287
155 213 54 344 26 43 296 27 36 49 74 45 238 98 293 17 96 334 326 348 354 359 357 7 17 12 4 352 346 330 318 313 318 321 312 309 305 306 307 303 276 268 267 273
353 20 80 40 23 16 42 44 358 5 6 224 68 12 262 328 42 19 122 14 352 354 3 347 355 352 352 351 351 351 339 331 327 322 313 306 303 302 297 296 284 272 260 255
44 322 22 331 56 277 36 109 140 269 233 261 322 239 219 289 29 31 43 26 5 8 5 345 345 342 336 331 327 329 334 340 342 336 325 318 311 301 296 291 278 267 254 252
109 317 3 62 46 102 344 38 209 120 24 22 256 325 306 303 24 4 12 26 356 331 327 314 325 326 328 315 310 307 308 320 328 328 320 312 313 314 306 298 275 258 254 254
186 309 14 313 43 18 98 150 32 11 343 305 278 243 234 169 262 261 330 298 281 282 299 299 306 315 313 315 308 297 291 304 316 320 309 296 301 303 307 303 274 257 249 248
105 97 289 51 46 229 9 30 56 110 143 218 299 252 214 193 0 336 322 326 323 316 307 295 298 306 309 315 309 304 290 304 307 307 304 287 292 299 285 275 273 271 272 272
50 137 292 248 290 313 290 126 120 118 277 228 195 278 144 160 199 281 308 300 293 285 284 291 293 296 297 300 299 295 300 304 306 301 297 292 294 287 279 266 274 274 270 275
185 0 14 352 356 351 211 206 126 103 81 217 154 265 189 269 294 285 287 289 291 285 284 292 297 296 296 298 297 301 305 308 308 303 296 294 290 283 281 284 276 271 276 283
92 131 157 191 217 172 272 241 254 160 136 231 230 284 304 312 315 312 301 297 294 293 289 293 294 296 298 290 294 305 303 303 306 298 304 297 292 283 288 290 284 283 287 282
103 198 185 237 242 211 234 253 236 207 226 184 273 269 288 299 300 306 303 298 309 309 304 302 300 309 308 307 309 304 302 302 296 296 297 294 293 289 289 288 283 284 287 282
9 215 131 282 259 239 252 257 229 247 293 267 294 289 202 289 286 295 303 301 305 301 303 305 311 313 312 309 308 303 301 297 295 292 289 291 292 287 282 279 284 283 281 282
107 129 101 262 358 333 314 277 170 227 235 216 274 279 300 313 310 311 305 303 296 296 306 312 313 309 306 304 303 300 299 298 294 293 282 291 289 288 287 285 279 270 273 277
138 118 142 262 6 282 246 53 123 251 278 266 277 266 280 282 285 287 286 283 290 298 309 308 308 303 304 302 299 296 295 294 291 288 288 287 285 280 283 283 279 276 277 271
132 128 117 134 206 284 196 213 104 134 273 279 211 273 288 295 315 293 275 263 297 307 308 311 307 305 304 303 302 299 295 292 291 287 286 286 288 284 281 279 280 264 277 272
74 71 121 117 157 267 226 251 120 122 293 231 227 271 283 334 320 315 325 319 311 315 311 305 304 303 302 301 303 300 296 295 289 289 288 289 289 288 283 279 273 276 273 273
23 19 173 144 228 284 227 242 123 71 271 237 229 271 285 272 253 299 309 310 317 313 312 311 310 306 303 302 302 297 296 290 291 289 288 288 291 290 288 288 282 276 277 277
179 148 203 95 260 291 186 135 157 221 283 253 274 271 273 275 292 298 308 314 317 315 314 313 310 307 307 306 301 296 293 293 292 290 287 287 293 291 289 285 283 279 271 267
261 185 184 175 218 228 217 215 236 178 240 269 246 275 271 283 296 306 310 313 316 312 311 313 310 309 307 307 306 298 296 298 293 289 287 294 305 302 302 293 280 271 271 267
249 154 207 66 265 240 251 253 247 221 235 271 253 270 276 276 302 306 314 314 313 316 316 314 313 312 310 312 311 308 309 311 298 289 296 312 311 315 323 321 327 283 285 295
203 144 186 262 282 290 275 235 255 281 279 277 282 259 274 288 302 306 313 313 313 318 318 318 317 313 311 313 314 316 318 322 306 299 316 327 321 330 341 37 35 39 44 50
186 187 161 226 234 184 250 270 274 269 274 278 282 303 300 280 299 306 312 309 315 319 317 318 318 319 319 321 320 328 336 337 313 318 350 342 353 20 33 51 57 61 76 88